Weather History for Morgantown, WV

Change the Weather History Date:

Wednesday, July 24, 2013

  Actual Average Record
Temperature  
Mean Temperature 67 °F 73 °F  
Max Temperature 73 °F 83 °F 94 °F (2010)
Min Temperature 60 °F 63 °F 49 °F (1954)
Degree Days  
Heating Degree Days 0 0  
Month to date heating degree days 0 0  
Since 1 June heating degree days 11 31  
Since 1 July heating degree days 0 0  
Cooling Degree Days 2 8  
Month to date cooling degree days 267 192  
Year to date cooling degree days 582 421  
Since 1 June cooling degree days 436 354  
Growing Degree Days 17 (Base 50)    
Moisture  
Dew Point 59 °F    
Average Humidity 73    
Maximum Humidity 93    
Minimum Humidity 53    
Precipitation  
Precipitation 0.00 in 0.15 in 1.07 in (1955)
Month to date precipitation 5.49 3.68  
Year to date precipitation 22.91 24.98  
Sea Level Pressure  
Sea Level Pressure 29.89 in    
Wind  
Wind Speed 4 mph (North)    
Max Wind Speed 14 mph    
Max Gust Speed 17 mph    
Visibility 10 miles    
Events      
T = Trace of Precipitation, MM = Missing Value Source: NWS Daily Summary

Daily Weather History Graph

Daily Weather History Graph

Search for Another Location

Airport:

Trip Planner

Search our weather history database for the weather conditions in past years. The results will help you decide how hot, cold, wet, or windy it might be!

Date:

Astronomy

Jul. 24, 2013 Rise Set
Actual Time 6:12 AM EDT 8:39 PM EDT
Civil Twilight 5:41 AM EDT 9:10 PM EDT
Nautical Twilight 5:02 AM EDT 9:48 PM EDT
Astronomical Twilight 4:20 AM EDT 10:30 PM EDT
Moon 9:45 PM EDT (7/24) 8:29 AM EDT (7/24)
Length of Visible Light 15h 29m
Length of Day
14h 27m
Waning Gibbous, 95% of the Moon is Illuminated
Jul 24
Waning Gibbous
Jul 29
Last Quarter
Aug 6
New
Aug 14
First Quarter
Aug 20
Full

Hourly Weather History & Observations

Time (EDT) Temp. Dew Point Humidity Pressure Visibility Wind Dir Wind Speed Gust Speed Precip Events Conditions
12:53 AM 66.0 °F 63.0 °F 90% 29.80 in 10.0 mi Calm Calm - N/A   Partly Cloudy
1:53 AM 66.9 °F 64.0 °F 90% 29.78 in 10.0 mi SSW 4.6 mph - N/A   Partly Cloudy
2:29 AM 66.2 °F 64.4 °F 94% 29.81 in 10.0 mi Variable 3.5 mph - N/A   Mostly Cloudy
2:53 AM 66.9 °F 64.9 °F 93% 29.78 in 10.0 mi Calm Calm - N/A   Overcast
3:02 AM 66.2 °F 64.4 °F 94% 29.81 in 10.0 mi SW 3.5 mph - N/A   Overcast
3:53 AM 66.9 °F 64.9 °F 93% 29.77 in 10.0 mi Calm Calm - N/A   Overcast
4:23 AM 68.0 °F 64.4 °F 88% 29.81 in 10.0 mi Calm Calm - N/A   Overcast
4:53 AM 66.9 °F 64.9 °F 93% 29.78 in 6.0 mi North 6.9 mph - N/A   Overcast
5:21 AM 66.2 °F 64.4 °F 94% 29.82 in 10.0 mi North 12.7 mph 16.1 mph N/A   Overcast
5:48 AM 66.2 °F 64.4 °F 94% 29.83 in 10.0 mi North 3.5 mph - N/A   Overcast
5:53 AM 66.0 °F 64.0 °F 93% 29.81 in 10.0 mi NNW 4.6 mph - N/A   Overcast
6:05 AM 66.2 °F 62.6 °F 88% 29.84 in 10.0 mi North 5.8 mph - N/A   Overcast
6:44 AM 66.2 °F 62.6 °F 88% 29.85 in 9.0 mi North 6.9 mph - N/A   Overcast
6:53 AM 64.9 °F 63.0 °F 93% 29.83 in 10.0 mi North 8.1 mph - N/A   Overcast
7:28 AM 64.4 °F 62.6 °F 94% 29.88 in 10.0 mi North 8.1 mph - N/A   Overcast
7:44 AM 64.4 °F 59.0 °F 83% 29.89 in 10.0 mi North 9.2 mph - N/A   Overcast
7:53 AM 63.0 °F 59.0 °F 87% 29.86 in 10.0 mi North 10.4 mph - N/A   Overcast
8:53 AM 64.9 °F 57.9 °F 78% 29.88 in 10.0 mi North 6.9 mph 16.1 mph N/A   Overcast
9:53 AM 66.0 °F 55.9 °F 70% 29.91 in 10.0 mi North 9.2 mph - N/A   Mostly Cloudy
10:27 AM 66.2 °F 55.4 °F 68% 29.94 in 10.0 mi North 9.2 mph - N/A   Mostly Cloudy
10:53 AM 66.0 °F 55.0 °F 68% 29.92 in 10.0 mi North 10.4 mph - N/A   Overcast
11:41 AM 66.2 °F 55.4 °F 68% 29.95 in 10.0 mi NNE 9.2 mph - N/A   Overcast
11:53 AM 66.0 °F 55.9 °F 70% 29.94 in 10.0 mi North 5.8 mph - N/A   Overcast
12:07 PM 66.2 °F 55.4 °F 68% 29.97 in 10.0 mi Variable 4.6 mph - N/A   Overcast
12:18 PM 66.2 °F 55.4 °F 68% 29.97 in 10.0 mi Variable 5.8 mph - N/A   Overcast
12:53 PM 68.0 °F 57.0 °F 68% 29.94 in 10.0 mi North 5.8 mph - N/A   Overcast
1:53 PM 69.1 °F 54.0 °F 58% 29.93 in 10.0 mi NNW 3.5 mph - N/A   Overcast
2:53 PM 73.0 °F 55.9 °F 55% 29.92 in 10.0 mi Variable 3.5 mph - N/A   Scattered Clouds
3:53 PM 71.1 °F 53.1 °F 53% 29.94 in 10.0 mi Calm Calm - N/A   Overcast
4:53 PM 71.1 °F 54.0 °F 55% 29.95 in 10.0 mi NNW 5.8 mph - N/A   Overcast
5:53 PM 71.1 °F 53.1 °F 53% 29.94 in 10.0 mi NNW 5.8 mph - N/A   Scattered Clouds
6:53 PM 71.1 °F 53.1 °F 53% 29.94 in 10.0 mi North 5.8 mph - N/A   Partly Cloudy
7:53 PM 68.0 °F 54.0 °F 61% 29.95 in 10.0 mi North 4.6 mph - N/A   Clear
8:53 PM 64.9 °F 54.0 °F 68% 29.96 in 10.0 mi Calm Calm - N/A   Clear
9:53 PM 62.1 °F 55.9 °F 80% 29.98 in 10.0 mi Calm Calm - N/A   Mostly Cloudy
10:53 PM 61.0 °F 55.9 °F 83% 29.99 in 10.0 mi Calm Calm - N/A   Partly Cloudy
11:53 PM 60.1 °F 57.0 °F 90% 30.01 in 10.0 mi Calm Calm - N/A   Overcast